Tracking 31027 objects as of 19-Jul-2025
HD Live streaming from Space Station
objects crossing your sky now

STARLINK-6055

Track STARLINK-6055 now!
10-day predictions
STARLINK-6055 is classified as:


NORAD ID: 56467
Int'l Code: 2023-064V
Perigee: 577.0 km
Apogee: 581.4 km
Inclination: 70.0 °
Period: 96.1 minutes
Semi major axis: 6950 km
RCS: Unknown
Launch date: May 10, 2023
Source: United States (US)
Launch site: AIR FORCE WESTERN TEST RANGE (AFWTR)
Your satellite tracking list
IRIDIUM 33 DEB
Track 1 satellite(s)




NASA's NSSDC Master Catalog

Two Line Element Set (TLE):
1 56467U 23064V   25199.87894166  .00000077  00000-0  14288-4 0  9999
2 56467  70.0001 354.1009 0003138 268.0577  92.0223 14.98330893121077
Source of the keplerian elements: AFSPC